User: anonymous   Login
Location: Prague
(50.0830°N, 14.4670°E)
Time: 12:33:07
(UTC+01:00)
Language:

AIST 2D - Orbit

View from above orbital plane
View from above orbital plane
View from above satellite
View from above satellite

Ground track
Ground track

The orbit data is extracted from the following two-line orbital elements,

1 41465U 16026B   21340.17127735  .00005000  00000-0  13769-3 0  9992
2 41465  97.0816 218.2509 0012174 109.0781   7.1294 15.37517894313809
Epoch (UTC): 06 December 2021 04:06:38
Eccentricity: 0.0012174
inclination: 97.0816°
perigee height: 445 km
apogee height: 462 km
right ascension of ascending node: 218.2509°
argument of perigee: 109.0781°
revolutions per day: 15.37517894
mean anomaly at epoch: 7.1294°
orbit number at epoch: 31380

The dashed part of the orbit path shows where the satellite is in the earth's shadow,  

DLR